Sierra Vista, AZ

3:53 AM MST on May 28, 2018 (GMT -0700)
Sierra Vista Municipal-Libby Army Air Field

Weather History for KFHU - January, 2013

Change the Weather History Date:

Monday, January 14, 2013

  Actual Average Record
Temperature  
Mean Temperature 28 °F -  
Max Temperature 37 °F 59 °F 71 °F (2002)
Min Temperature 19 °F 38 °F 19 °F (2007)
Degree Days  
Heating Degree Days 37    
Moisture  
Dew Point 2 °F    
Average Humidity 35    
Maximum Humidity 49    
Minimum Humidity 22    
Precipitation  
Precipitation 0.00 in - - ()
Sea Level Pressure  
Sea Level Pressure 30.08 in    
Wind  
Wind Speed 9 mph (West)    
Max Wind Speed 16 mph    
Max Gust Speed 26 mph    
Visibility 10 miles    
Events      
Averages and records for this station are not official NWS values.
T = Trace of Precipitation, MM = Missing Value Source: NWS Daily Summary

Daily Weather History Graph

Daily Weather History Graph

Search for Another Location

Airport or City:

Astronomy

Jan. 14, 2013 Rise Set
Actual Time 7:21 AM MST 5:40 PM MST
Civil Twilight 6:55 AM MST 6:06 PM MST
Nautical Twilight 6:25 AM MST 6:36 PM MST
Astronomical Twilight 5:55 AM MST 7:05 PM MST
Moon 9:11 AM MST (1/14) 9:12 PM MST (1/14)
Length of Visible Light 11h 11m
Length of Day
10h 18m
Waxing Crescent, 12% of the Moon is Illuminated
Jan 14
Waxing Crescent
Jan 18
First Quarter
Jan 26
Full
Feb 3
Last Quarter
Feb 10
New

Hourly Weather History & Observations

Time (MST) Temp. Windchill Dew Point Humidity Pressure Visibility Wind Dir Wind Speed Gust Speed Precip Events Conditions
12:55 AM 26.6 °F 20.0 °F 1.4 °F 34% 30.00 in 10.0 mi Variable 5.8 mph - N/A   Scattered Clouds
1:55 AM 26.6 °F 16.2 °F 3.2 °F 37% 30.01 in 10.0 mi West 11.5 mph - N/A   Scattered Clouds
2:55 AM 24.8 °F 16.1 °F 3.2 °F 40% 30.02 in 10.0 mi West 8.1 mph - N/A   Scattered Clouds
3:55 AM 24.8 °F 16.9 °F 3.2 °F 40% 30.01 in 10.0 mi West 6.9 mph - N/A   Scattered Clouds
4:55 AM 21.2 °F 16.4 °F 3.2 °F 46% 30.02 in 10.0 mi WNW 3.5 mph - N/A   Scattered Clouds
5:55 AM 19.4 °F 14.3 °F 3.2 °F 49% 30.04 in 10.0 mi Variable 3.5 mph - N/A   Scattered Clouds
6:55 AM 19.4 °F 7.9 °F 3.2 °F 49% 30.07 in 10.0 mi West 10.4 mph - N/A   Partly Cloudy
7:55 AM 21.2 °F 10.1 °F 3.2 °F 46% 30.09 in 10.0 mi WSW 10.4 mph - N/A   Partly Cloudy
8:55 AM 28.4 °F 20.4 °F 3.2 °F 34% 30.09 in 10.0 mi WSW 8.1 mph - N/A   Partly Cloudy
9:55 AM 30.2 °F 24.3 °F 1.4 °F 29% 30.10 in 10.0 mi NW 5.8 mph - N/A   Partly Cloudy
10:55 AM 32.0 °F 24.8 °F -0.4 °F 25% 30.10 in 10.0 mi West 8.1 mph - N/A   Partly Cloudy
11:55 AM 33.8 °F 25.3 °F -0.4 °F 23% 30.08 in 10.0 mi West 11.5 mph - N/A   Partly Cloudy
12:55 PM 35.6 °F 27.5 °F -0.4 °F 22% 30.04 in 10.0 mi NW 11.5 mph 18.4 mph N/A   Partly Cloudy
1:55 PM 37.4 °F 28.2 °F 3.2 °F 24% 30.03 in 10.0 mi West 16.1 mph 25.3 mph N/A   Scattered Clouds
2:55 PM 37.4 °F 29.3 °F 1.4 °F 22% 30.04 in 10.0 mi West 12.7 mph 26.5 mph N/A   Partly Cloudy
3:55 PM 35.6 °F 29.2 °F 3.2 °F 26% 30.06 in 10.0 mi West 8.1 mph 19.6 mph N/A   Partly Cloudy
4:55 PM 35.6 °F 26.6 °F 3.2 °F 26% 30.07 in 10.0 mi West 13.8 mph - N/A   Partly Cloudy
5:55 PM 30.2 °F 20.8 °F 3.2 °F 32% 30.12 in 10.0 mi WNW 11.5 mph - N/A   Partly Cloudy
6:55 PM 26.6 °F 15.7 °F 3.2 °F 37% 30.14 in 10.0 mi West 12.7 mph - N/A   Clear
7:55 PM 24.8 °F 13.4 °F -0.4 °F 34% 30.17 in 10.0 mi West 12.7 mph - N/A   Clear
8:55 PM 21.2 °F 9.5 °F -0.4 °F 39% 30.17 in 10.0 mi West 11.5 mph - N/A   Clear
9:55 PM 21.2 °F 9.5 °F -0.4 °F 39% 30.16 in 10.0 mi West 11.5 mph - N/A   Clear
10:55 PM 21.2 °F 10.9 °F -0.4 °F 39% 30.17 in 10.0 mi West 9.2 mph - N/A   Clear
11:55 PM 19.4 °F 9.5 °F -2.2 °F 39% 30.18 in 10.0 mi WSW 8.1 mph - N/A   Clear